Location: Unspecified
(0.0000°N, 0.0000°E)
Time: 21:18:09
(UTC+00:00)

Altair - Pass Details

Date: 20 July 2024
Orbit: 1502 x 1682 km, 47.2° (Epoch: 18 June)

Event Time Altitude Azimuth Distance (km) Brightness Sun altitude
Exits shadow 04:25:32 35° 230° (SW) 2,381 8.0 -23.5°
Maximum altitude 04:25:38 35° 229° (SW) 2,381 8.0 -23.5°
Drops below altitude 10° 04:34:19 10° 167° (SSE) 3,875 9.5 -21.5°
Sets 04:37:56 0° 157° (SSE) 4,886 10.1 -20.6°
